Home > Weather > Kaarst > Past weeks

Flag for Germany Past Weather in Kaarst, North Rhine-Westphalia, Germany — Yesterday and Last 2 Weeks

Now
61 °F

Partly sunny.


Feels Like: 61 °F
Forecast: 59 / 68 °F
Wind: 12 mph from Southwest

Location: Monchengladbach Airport

Current Time: Jun 29, 2016 at 11:12:05 AM

Latest Report: Jun 29, 2016 at 10:20 AM


Visibility: N/A

Pressure: 29.92 "Hg

Humidity: 72%

Dew Point: 52 °F

Location of KaarstLocation

Past Weather in Kaarst — Graph

°F

Kaarst Temperature Yesterday

Maximum temperature yesterday: 73 °F (at 4:20 PM)
Minimum temperature yesterday: 59 °F (at 7:50 AM)
Average temperature yesterday: 68 °F

High & Low Weather Summary for the Past Weeks

 TemperatureHumidityPressure
High91 °F (Jun 23, 4:50 PM)100% (Jun 18, 7:50 AM)30.27 "Hg (Jun 18, 7:50 AM)
Low54 °F (Jun 20, 7:50 AM)46% (Jun 19, 4:50 PM)29.47 "Hg (Jun 14, 3:20 PM)
Average66 °F75%29.94 "Hg
* Reported Jun 14 9:20 AM — Jun 29 9:20 AM, Kaarst, Weather by CustomWeather, © 2016

Note: Actual official high and low records may vary slightly from our data, if they occured in-between our weather recording intervals... More about our weather records

Advertising

Kaarst Weather History for the Previous 24 Hours

Scroll right to see more
 ConditionsComfort  
Time TempWeatherWind HumidityBarometerVisibility
9:20 AM
Wed, Jun 29
59 °FPartly sunny.8 mph77%29.89 "HgN/A
8:50 AM59 °FBroken clouds.9 mph77%29.89 "HgN/A
8:20 AM59 °FScattered clouds.7 mph82%29.89 "HgN/A
7:50 AM57 °FPartly sunny.8 mph88%29.89 "HgN/A
7:20 AM57 °FPartly sunny.7 mph88%29.89 "HgN/A
8:20 PM
Tue, Jun 28
68 °FPassing clouds.5 mph60%29.92 "HgN/A
7:50 PM70 °FPassing clouds.7 mph53%29.92 "HgN/A
7:20 PM70 °FPassing clouds.8 mph53%29.92 "HgN/A
6:50 PM72 °FClear.6 mph53%29.92 "Hg10 mi
6:20 PM72 °FPassing clouds.6 mph50%29.92 "HgN/A
5:50 PM72 °FClear.6 mph50%29.95 "Hg10 mi
5:20 PM72 °FPassing clouds.5 mph53%29.95 "HgN/A
4:50 PM73 °FPassing clouds.5 mph47%29.98 "HgN/A
4:20 PM73 °FPassing clouds.6 mph50%29.98 "HgN/A
3:50 PM72 °FPassing clouds.6 mph53%29.98 "HgN/A
3:20 PM72 °FPassing clouds.6 mph53%29.98 "HgN/A
2:50 PM70 °FPassing clouds.3 mph57%30.01 "HgN/A
2:20 PM70 °FPassing clouds.6 mph60%30.01 "HgN/A
1:50 PM70 °FScattered clouds.5 mph60%30.01 "HgN/A
1:20 PM68 °FScattered clouds.5 mph64%30.01 "HgN/A
12:50 PM68 °FScattered clouds.3 mph69%30.04 "HgN/A
12:20 PM68 °FScattered clouds.5 mph64%30.04 "HgN/A
11:50 AM66 °FScattered clouds.6 mph68%30.04 "HgN/A
11:20 AM66 °FScattered clouds.5 mph73%30.07 "HgN/A
Weather by CustomWeather, © 2016

See weather overviewHow to use our weather pages